[ hide orbit diagram ]
For accurate long-term ephemerides, please instead use our Horizons system.This orbit viewer was implemented using two-body methods, and hence should not be used for determining accurate long-term trajectories (over several years or decades) or planetary encounter circumstances.
Orbital Elements at Epoch 2459000.5 (2020-May-31.0) TDB
Reference: JPL 36 (heliocentric ecliptic J2000)
Element | Value | Uncertainty (1-sigma) | Units |
e | .1229460471451394 | 3.5315e-08 | |
a | 2.591644030120475 | 1.0634e-08 | au |
q | 2.273011641009864 | 9.2835e-08 | au |
i | 14.02366296530958 | 4.2999e-06 | deg |
node | 161.8177921470665 | 1.2612e-05 | deg |
peri | 315.0349489186202 | 1.924e-05 | deg |
M | 296.3596554905818 | 1.4873e-05 | deg |
tp | 2459269.896204444698 (2021-Feb-24.39620444) | 6.3422e-05 | TDB |
period | 1523.917482655029 4.17 | 9.3797e-06 2.568e-08 | d yr |
n | .2362332633475625 | 1.454e-09 | deg/d |
Q | 2.910276419231085 | 1.1942e-08 | au |
|
| | Orbit Determination Parameters
Additional Information
|
[ show covariance matrix ]
Physical Parameter Table
Parameter |
Symbol |
Value |
Units |
Sigma |
Reference |
Notes |
absolute magnitude |
H |
12.5 |
|
n/a |
MPO502187 |
|
diameter |
diameter |
7.700 |
km |
0.165 |
urn:nasa:pds:neowise_diameters_albedos::2.0[mainbelt] (http://adsabs.harvard.edu/abs/2011ApJ...741...68M) |
|
rotation period |
rot_per |
7.49 |
h |
n/a |
LCDB (Rev. 2020-October); Warner et al., 2009 |
Result based on less than full coverage, so that the period may be wrong by 30 percent or so. Published Reference List: [Clark, M. (2019) Minor Planet Bull. 46, 346-349.] |
geometric albedo |
albedo |
0.248 |
|
0.027 |
urn:nasa:pds:neowise_diameters_albedos::2.0[mainbelt] (http://adsabs.harvard.edu/abs/2011ApJ...741...68M) |
|
|
3569 Kumon (1938 DN1) Discovered 1938-Feb-20 by Reinmuth, K. at Heidelberg |
Reference: DISCOVERY.DB | Last Updated: 2003-08-29 |
|
[ show close-approach data ]
Alternate Designations
1938 DN1 = 1955 GB = 1984 DJ3 |
|
|